Weather History for Chino, CA

Change the Weather History Date:

Tuesday, October 1, 2013

  Actual Average Record
Temperature  
Mean Temperature 70 °F -  
Max Temperature 88 °F 82 °F 108 °F (2012)
Min Temperature 52 °F 51 °F 50 °F (1999)
Cooling Degree Days 5    
Growing Degree Days 20 (Base 50)    
Moisture  
Dew Point 49 °F    
Average Humidity 56    
Maximum Humidity 86    
Minimum Humidity 21    
Precipitation  
Precipitation 0.00 in - - ()
Sea Level Pressure  
Sea Level Pressure 29.90 in    
Wind  
Wind Speed 3 mph (WSW)    
Max Wind Speed 14 mph    
Max Gust Speed 17 mph    
Visibility 9 miles    
Events      
Averages and records for this station are not official NWS values.
T = Trace of Precipitation, MM = Missing Value Source: NWS Daily Summary

Daily Weather History Graph

Daily Weather History Graph

Search for Another Location

Airport:

Trip Planner

Search our weather history database for the weather conditions in past years. The results will help you decide how hot, cold, wet, or windy it might be!

Date:

Astronomy

Oct. 01, 2013 Rise Set
Actual Time 6:45 AM PDT 6:34 PM PDT
Civil Twilight 6:20 AM PDT 6:59 PM PDT
Nautical Twilight 5:51 AM PDT 7:28 PM PDT
Astronomical Twilight 5:22 AM PDT 7:57 PM PDT
Moon 3:31 AM PDT (10/1) 4:34 PM PDT (10/1)
Length of Visible Light 12h 38m
Length of Day
11h 49m
Waning Crescent, 11% of the Moon is Illuminated
Oct 1
Waning Crescent
Oct 4
New
Oct 11
First Quarter
Oct 18
Full
Oct 26
Last Quarter

Hourly Weather History & Observations

Time (PDT) Temp. Heat Index Dew Point Humidity Pressure Visibility Wind Dir Wind Speed Gust Speed Precip Events Conditions
12:53 AM 57.9 °F - 46.9 °F 67% 29.89 in 6.0 mi Calm Calm - N/A   Haze
1:53 AM 57.9 °F - 46.0 °F 65% 29.90 in 7.0 mi Calm Calm - N/A   Clear
2:53 AM 54.0 °F - 46.9 °F 77% 29.89 in 6.0 mi Calm Calm - N/A   Haze
3:53 AM 54.0 °F - 46.0 °F 75% 29.90 in 6.0 mi Calm Calm - N/A   Haze
4:53 AM 52.0 °F - 46.0 °F 80% 29.90 in 6.0 mi ENE 3.5 mph - N/A   Haze
5:53 AM 53.1 °F - 45.0 °F 74% 29.91 in 7.0 mi Calm Calm - N/A   Clear
6:53 AM 52.0 °F - 46.0 °F 80% 29.92 in 10.0 mi Calm Calm - N/A   Clear
7:53 AM 57.9 °F - 50.0 °F 75% 29.94 in 10.0 mi Calm Calm - N/A   Clear
8:53 AM 66.0 °F - 46.9 °F 50% 29.94 in 10.0 mi Calm Calm - N/A   Clear
9:53 AM 72.0 °F - 43.0 °F 35% 29.94 in 10.0 mi Calm Calm - N/A   Clear
10:53 AM 77.0 °F - 44.1 °F 31% 29.93 in 10.0 mi Variable 3.5 mph - N/A   Clear
11:53 AM 82.0 °F - 42.1 °F 24% 29.92 in 10.0 mi Calm Calm - N/A   Clear
12:53 PM 86.0 °F - 42.1 °F 21% 29.90 in 10.0 mi Variable 4.6 mph - N/A   Clear
1:53 PM 88.0 °F - 46.9 °F 24% 29.87 in 10.0 mi West 6.9 mph - N/A   Clear
2:53 PM 86.0 °F - 46.9 °F 26% 29.86 in 10.0 mi West 6.9 mph - N/A   Clear
3:53 PM 84.9 °F - 50.0 °F 30% 29.85 in 10.0 mi West 11.5 mph 17.3 mph N/A   Clear
4:53 PM 82.0 °F 81.3 °F 54.0 °F 38% 29.86 in 7.0 mi West 12.7 mph - N/A   Clear
5:53 PM 77.0 °F - 55.0 °F 47% 29.86 in 10.0 mi WSW 13.8 mph - N/A   Clear
6:53 PM 71.1 °F - 55.9 °F 59% 29.87 in 10.0 mi WSW 12.7 mph - N/A   Clear
7:53 PM 66.9 °F - 57.0 °F 70% 29.89 in 10.0 mi WSW 5.8 mph - N/A   Clear
8:53 PM 64.9 °F - 57.0 °F 75% 29.92 in 8.0 mi SW 4.6 mph - N/A   Clear
9:53 PM 63.0 °F - 57.0 °F 81% 29.92 in 8.0 mi SW 3.5 mph - N/A   Clear
11:53 PM 60.1 °F - 55.9 °F 86% 29.93 in 7.0 mi WNW 4.6 mph - N/A   Clear